Погода в Янбу

Саудовская Аравия     23°58′16″N   38°15′04″E
темп.,
°C
ветер,
м/с
пор.,
м/с
влажн.,
%
обл.,
%
осадки,
мм/ч
давл.,
гПа
погр.,
м
12 мая, ср
ср1200:00+28з44541 0.0 100630
03:00+25вюв015957 0.0 100711
06:00+26в22467 0.0 100720
09:00+32ю11324 0.0 1008317
12:00+33юз54350 0.0 1008528
15:00+33юз55400 0.0 1006453
18:00+31з54470 0.0 1006294
21:00+27с11540 0.0 100712
13 мая, чт
чт1300:00+27зсз11500 0.0 100711
03:00+26з22540 0.0 100616
06:00+26сз33630 0.0 100740
09:00+32в12350 0.0 1008349
12:00+34зюз64300 0.0 1007725
15:00+34з88320 0.0 1005517
18:00+33зсз810340 0.0 1005330
21:00+30сз45320 0.0 100647
14 мая, пт
пт1400:00+27зсз33380 0.0 100623
03:00+26зсз45500 0.0 100578
06:00+25зсз56460 0.0 1007112
09:00+31юв12260 0.0 1008325
12:00+34з75300 0.0 1008712
15:00+33з88340 0.0 1006530
18:00+31зсз79390 0.0 1006258
21:00+27зсз34530 0.0 100645
15 мая, сб
сб1500:00+25зсз33560 0.0 100664
03:00+24ююз01610 0.0 100571
06:00+24ю22640 0.0 1006103
09:00+29ююв22440 0.0 1007387
12:00+31юз43390 0.0 1006528
15:00+32з65430 0.0 1004548
18:00+29з44550 0.0 1004283
21:00+25ююв11750 0.0 100546
16 мая, вс
вс1600:00+24ю22680 0.0 100465
03:00+24ююз33730 0.0 100397
06:00+24ю12790 0.0 1004109
09:00+29ю33580 0.0 1005522
12:00+30ююз54540 0.0 1005598
15:00+31зюз65520 0.0 1003551
18:00+29зюз44610 0.0 1003324
21:00+26юв22770 0.0 100461